STARLINK-35029, 65445

Orbit data source: Space-Track

STARLINK-35029, 65445 is a payload satellite owned by SpaceX/Seattle (US) in SSO that was launched on Wed, 03 Sep 2025 UTC via an FALCON 9 launch vehicle from the Air Force Western Test Range (AFWTR). Payload-class satellites include a variety of spacecraft equipped with specific instruments for various scientific and technological missions. These include communications satellites like Starlink; space stations such as the ISS; scientific satellites like the Hubble; Earth observation satellites from companies like Planet Labs, Umbra, and HawkEye 360; GPS; miniature CubeSats for education and research; and military/defense satellites.

Loading next visibility...
Identifier
65445, 2025-194M
Orbit
SSO
Country
Flag of USUS
Related business
Manufacturer
SpaceX/Seattle
Mission
Operational Commercial Communications
Bus & Motor
STARLINK V2MO, Unknown motor
Mass
575 kg wet, ~530 kg dry
Launch date (UTC)
2025-09-03 (10 months ago)
Launch vehicle
FALCON 9
Launch site
Air Force Western Test Range (AFWTR)
Object type
Payload
Rocket body
Debris
Shape & HBR
Box + 2 Pan, 17.7 m
Radar Cross Section
36.964 m², Large (>1 m²)

Expand to show TLE details & history
Last TLE update: 12 hours ago

TLE from 12 hours ago
0 STARLINK-35029
1 65445U 25194M   26171.33616573  .00003850  00000-0  27053-3 0  9992
2 65445  97.3461  24.4779 0002247  86.4525 273.6959 15.05662325 45098
Epoch: 2026-06-20T08:04Z
TLE epoch observation values (Epoch: 2026-06-20T08:04:04.719Z)
Latitude
-0.00005°
Longitude
-5.09401°
Altitude
552.446 km
Speed
7.586 km/s
True Right ascension
01h 37m 54s
True Declination
0° 00' 00"
Sunlit
Object was in daylight at epoch
Visualization orbit readout
Latitude
Unknown
Longitude
Unknown
Altitude
Unknown
Speed
Unknown
Apparent Right ascension
Unknown
Apparent Declination
Unknown
Sunlit
N/A
Visualization observer readout
Local Sidereal Time
07:20:43
Azimuth
Unknown
Elevation
Unknown
Doppler factor
Unknown
Orbital elements
Apogee altitude
548.012 km
Perigee altitude
544.9 km
Semi-major axis
6,924.593 km
Eccentricity
0.00022
Inclination
97.3461°
RAAN
24.4779°
Arg. of periapsis
86.4525°
True anomaly
273.6702°
Mean anomaly
273.6959°
Eccentric anomaly
273.68305°
Mean motion
3.76662 °/min
Orbital period
95.58 mins
BSTAR
0.00027053
Loading maneuver chart data...
Computing Atmospheric mass density...
Loading historical data...
Loading historical data...
Loading historical data...
Loading historical data...
Loading historical data...
Loading historical data...
Loading historical data...

Documentation

Showing up to 5 results
|